User: anonymous   Login
Location: Ciserano
(45.5833°N, 9.6000°E)
Time: 07:55:19
(UTC+00:00)
Language:

Cosmos 1295 Rocket - Orbit

View from above orbital plane
View from above orbital plane
View from above satellite
View from above satellite

Ground track
Ground track

The orbit data is extracted from the following two-line orbital elements,

1 12682U 81077B   21058.80992561  .00000041  00000-0  24562-4 0  9996
2 12682  82.9130  85.1570 0034720 150.7862 209.5248 13.78607661988825
Epoch (UTC): 27 February 2021 19:26:17
Eccentricity: 0.0034720
inclination: 82.9130°
perigee height: 943 km
apogee height: 994 km
right ascension of ascending node: 85.1570°
argument of perigee: 150.7862°
revolutions per day: 13.78607661
mean anomaly at epoch: 209.5248°
orbit number at epoch: 98882

The dashed part of the orbit path shows where the satellite is in the earth's shadow,  

DLR